DW8086 Weather Reports


time (UTC)temp
C
wind
direction
speed
KPH
gust
KPH
rain 1hr
cm
rain 24hr
cm
rain mn
cm
humidity
%
barometer
mb
20260905103017 22 0.0 0.0 0.00 0.00 0.00 78 1010.4
20260905102017 22 0.0 0.0 0.00 0.00 0.00 78 1010.3
20260905101017 22 0.0 0.0 0.00 0.00 0.00 76 1010.2
20260905100017 22 0.0 0.0 0.00 0.00 0.00 75 1010.3
20260905095017 22 0.0 0.0 0.00 0.00 0.00 75 1010.2
20260905094017 22 0.0 0.0 0.00 0.00 0.00 76 1010.3
20260905093037 22 0.0 0.0 0.00 0.00 0.00 76 1010.3
20260905092017 22 0.0 0.0 0.00 0.00 0.00 76 1010.3
20260905091017 22 0.0 0.0 0.00 0.00 0.00 76 1010.3
20260905090017 22 0.0 0.0 0.00 0.00 0.00 77 1010.2
20260905085017 22 0.0 0.0 0.00 0.00 0.00 77 1010.1
20260905084017 22 0.0 0.0 0.00 0.00 0.00 77 1010.0
20260905083017 22 0.0 0.0 0.00 0.00 0.00 78 1010.1
20260905082017 22 0.0 0.0 0.00 0.00 0.00 79 1010.1
20260905081057 22 0.0 0.0 0.00 0.00 0.00 79 1010.2
20260905080017 22 0.0 0.0 0.00 0.00 0.00 79 1010.3
20260905075017 22 0.0 0.0 0.00 0.00 0.00 79 1010.2
20260905074016 22 0.0 0.0 0.00 0.00 0.00 78 1010.2
20260905073016 22 0.0 0.0 0.00 0.00 0.00 78 1010.1
20260905072037 22 0.0 0.0 0.00 0.00 0.00 78 1010.3
20260905071017 22 0.0 0.0 0.00 0.00 0.00 78 1010.3
20260905070037 22 0.0 0.0 0.00 0.00 0.00 78 1010.4
20260905065037 23 0.0 0.0 0.00 0.00 0.00 77 1010.4
20260905064037 23 0.0 0.0 0.00 0.00 0.00 77 1010.4
20260905063037 23 0.0 0.0 0.00 0.00 0.00 76 1010.5
20260905062017 23 0.0 0.0 0.00 0.00 0.00 76 1010.5
20260905061017 23 0.0 0.0 0.00 0.00 0.00 75 1010.5
20260905060017 23 0.0 0.0 0.00 0.00 0.00 75 1010.7
20260905055017 23 0.0 0.0 0.00 0.00 0.00 75 1010.8
20260905054017 23 0.0 0.0 0.00 0.00 0.00 75 1010.8
20260905053037 23 0.0 0.0 0.00 0.00 0.00 75 1010.8
20260905052037 23 0.0 0.0 0.00 0.00 0.00 75 1010.9
20260905051017 23 0.0 0.0 0.00 0.00 0.00 75 1010.9
20260905050017 23 0.0 0.0 0.00 0.00 0.00 75 1011.1
20260905045017 23 0.0 0.0 0.00 0.00 0.00 74 1011.0
20260905044017 23 0.0 0.0 0.00 0.00 0.00 74 1011.2
20260905043017 23 0.0 0.0 0.00 0.00 0.00 74 1011.2
20260905042017 23 0.0 0.0 0.00 0.00 0.00 74 1011.3
20260905041017 23 0.0 0.0 0.00 0.00 0.00 75 1011.4
20260905040017 23 0.0 0.0 0.00 0.00 0.00 76 1011.4
20260905035016 23 0.0 0.0 0.00 0.00 0.00 76 1011.4
20260905034015 23 0.0 0.0 0.00 0.00 0.00 77 1011.3
20260905033016 23 0.0 0.0 0.00 0.00 0.00 78 1011.3
20260905032015 23 0.0 0.0 0.00 0.00 0.00 78 1011.2
20260905031016 23 0.0 0.0 0.00 0.00 0.00 79 1011.1
20260905030015 23 0.0 0.0 0.00 0.00 0.00 79 1011.1
20260905025016 23 0.0 0.0 0.00 0.00 0.00 80 1011.1
20260905024015 23 0.0 0.0 0.00 0.00 0.00 80 1011.1
20260905023016 23 0.0 0.0 0.00 0.00 0.00 82 1011.1
20260905022015 24 0.0 0.0 0.00 0.00 0.00 82 1011.1
20260905021016 24 0.0 0.0 0.00 0.00 0.00 82 1011.1
20260905020016 24 0.0 0.0 0.00 0.00 0.00 81 1011.1
20260905015016 24 0.0 0.0 0.00 0.00 0.00 80 1011.2
20260905014016 24 0.0 0.0 0.00 0.00 0.00 79 1011.2
20260905013016 25 0.0 0.0 0.00 0.00 0.00 79 1011.2
20260905012056 25 0.0 0.0 0.00 0.00 0.00 79 1011.1
20260905011056 25 0.0 0.0 0.00 0.00 0.00 79 1011.3
20260905010036 25 0.0 0.0 0.00 0.00 0.00 79 1011.1
20260905005016 25 0.0 0.0 0.00 0.00 0.00 77 1011.0
20260905004015 25 0.0 0.0 0.00 0.00 0.00 78 1011.1
20260905003016 26 0.0 0.0 0.00 0.00 0.00 78 1010.8
20260905002016 26 0.0 0.0 0.00 0.00 0.00 78 1010.7
20260905001016 26 0.0 0.0 0.00 0.00 0.00 77 1010.8
20260905000016 26 0.0 0.0 0.00 0.00 0.00 77 1010.7
20260904235015 26 0.0 0.0 0.00 0.00 0.00 77 1010.8
20260904234016 27 0.0 0.0 0.00 0.00 0.00 76 1010.8
20260904233016 27 0.0 0.0 0.00 0.00 0.00 76 1010.8
20260904232016 27 0.0 0.0 0.00 0.00 0.00 74 1010.8
20260904231015 27 0.0 0.0 0.00 0.00 0.00 71 1010.9
20260904230016 27 0.0 0.0 0.00 0.00 0.00 71 1010.8
20260904225016 28 0.0 0.0 0.00 0.00 0.00 70 1010.8
20260904224016 28 0.0 0.0 0.00 0.00 0.00 70 1010.9
20260904223016 28 0.0 0.0 0.00 0.00 0.00 69 1011.0
20260904222016 28 270 1.6 3.2 0.00 0.00 0.00 66 1010.9
20260904221016 29 0.0 1.6 0.00 0.00 0.00 66 1010.8
20260904220016 29 0.0 0.0 0.00 0.00 0.00 67 1010.7
20260904215016 30 0.0 1.6 0.00 0.00 0.00 66 1010.8
20260904214016 30 248 1.6 4.8 0.00 0.00 0.00 64 1010.7
20260904213036 30 0.0 3.2 0.00 0.00 0.00 63 1010.7
20260904212016 30 270 1.6 9.7 0.00 0.00 0.00 64 1010.6
20260904211016 30 0.0 0.0 0.00 0.00 0.00 63 1010.6
20260904210016 30 180 1.6 4.8 0.00 0.00 0.00 64 1010.6
20260904205016 30 225 1.6 6.4 0.00 0.00 0.00 66 1010.7
20260904204036 30 203 1.6 4.8 0.00 0.00 0.00 64 1010.7
20260904203016 31 248 3.2 6.4 0.00 0.00 0.00 62 1010.8
20260904202016 31 203 1.6 6.4 0.00 0.00 0.00 63 1010.9
20260904201016 31 270 1.6 4.8 0.00 0.00 0.00 63 1011.0
20260904200016 31 225 1.6 4.8 0.00 0.00 0.00 63 1011.2
20260904195036 30 0.0 1.6 0.00 0.00 0.00 66 1011.2
20260904194016 30 248 4.8 6.4 0.00 0.00 0.00 64 1011.4
20260904193016 30 270 4.8 9.7 0.00 0.00 0.00 63 1011.5
20260904192016 30 0.0 4.8 0.00 0.00 0.00 62 1011.5
20260904191036 30 248 6.4 11.3 0.00 0.00 0.00 62 1011.5
20260904190016 30 248 4.8 9.7 0.00 0.00 0.00 64 1011.6
20260904185016 30 270 6.4 11.3 0.00 0.00 0.00 64 1011.7
20260904184016 31 248 1.6 3.2 0.00 0.00 0.00 63 1011.7
20260904183016 30 0.0 1.6 0.00 0.00 0.00 67 1011.7
20260904182036 30 225 1.6 3.2 0.00 0.00 0.00 64 1011.8
20260904181016 30 0.0 1.6 0.00 0.00 0.00 66 1011.8
20260904180016 30 0.0 0.0 0.00 0.00 0.00 66 1011.9
20260904175016 30 270 1.6 3.2 0.00 0.00 0.00 64 1011.8
20260904174016 30 0.0 1.6 0.00 0.00 0.00 64 1011.9
20260904173016 30 0.0 1.6 0.00 0.00 0.00 66 1011.8
20260904172016 30 248 1.6 8.0 0.00 0.00 0.00 66 1011.9
20260904171016 29 270 3.2 6.4 0.00 0.00 0.00 66 1011.8
20260904170036 30 0.0 3.2 0.00 0.00 0.00 64 1012.0
20260904165036 30 203 3.2 8.0 0.00 0.00 0.00 65 1011.9
20260904164036 30 338 1.6 4.8 0.00 0.00 0.00 66 1011.9
20260904163016 30 0.0 1.6 0.00 0.00 0.00 65 1012.0
20260904162016 30 293 1.6 6.4 0.00 0.00 0.00 61 1012.0
20260904161016 30 0.0 3.2 0.00 0.00 0.00 66 1012.0
20260904160016 30 270 1.6 4.8 0.00 0.00 0.00 66 1012.1
20260904155016 30 0.0 1.6 0.00 0.00 0.00 65 1012.0
20260904154016 30 0.0 0.0 0.00 0.00 0.00 67 1012.1
20260904153016 30 0.0 1.6 0.00 0.00 0.00 70 1012.3
20260904152056 30 0.0 1.6 0.00 0.00 0.00 71 1012.4
20260904151016 29 315 1.6 3.2 0.00 0.00 0.00 70 1012.4
20260904150016 28 0.0 1.6 0.00 0.00 0.00 71 1012.4
20260904145016 28 180 1.6 4.8 0.00 0.00 0.00 74 1012.4
20260904144016 28 0.0 1.6 0.00 0.00 0.00 74 1012.4
20260904143016 28 0.0 1.6 0.00 0.00 0.00 75 1012.4
20260904142016 28 0 1.6 4.8 0.00 0.00 0.00 77 1012.4
20260904141019 28 0.0 1.6 0.00 0.00 0.00 78 1012.3
20260904140016 27 270 1.6 6.4 0.00 0.00 0.00 80 1012.2
20260904135016 27 0.0 1.6 0.00 0.00 0.00 81 1012.2
20260904134016 27 0 1.6 6.4 0.00 0.00 0.00 82 1012.2
20260904133016 26 135 1.6 3.2 0.00 0.00 0.00 83 1012.2
20260904132016 26 180 1.6 6.4 0.00 0.00 0.00 84 1012.0
20260904131016 26 248 1.6 4.8 0.00 0.00 0.00 86 1012.1
20260904130016 26 248 1.6 8.0 0.00 0.00 0.00 86 1012.1
20260904125016 26 270 1.6 12.9 0.00 0.00 0.00 87 1012.0
20260904124016 25 248 3.2 9.7 0.00 0.00 0.00 89 1012.0
20260904123016 25 0.0 0.0 0.00 0.00 0.00 90 1012.0
20260904122036 25 0.0 0.0 0.00 0.00 0.00 91 1011.9
20260904121016 24 0.0 0.0 0.00 0.00 0.00 92 1011.9
20260904120016 23 0.0 0.0 0.00 0.00 0.00 92 1011.7
20260904115016 23 0.0 3.2 0.00 0.00 0.00 92 1011.9
20260904114016 23 0.0 0.0 0.00 0.00 0.00 92 1011.8
20260904113016 23 0.0 0.0 0.00 0.00 0.00 92 1011.7
20260904112016 23 0.0 0.0 0.00 0.00 0.00 92 1011.6
20260904111016 23 0.0 0.0 0.00 0.00 0.00 92 1011.4
20260904110016 23 0.0 1.6 0.00 0.00 0.00 92 1011.2
20260904105016 23 0.0 1.6 0.00 0.00 0.00 92 1011.2
20260904104016 23 0.0 0.0 0.00 0.00 0.00 92 1011.1